Regional Weather Roundup
Issued by NWS

Home | Current Version | Previous Version | Graphics & Text | Print | Product List | Glossary On
Versions: 1 2 3 4 5 6 7 8 9 10 11 12 13 14 15 16 17 18 19 20 21 22 23 24 25 26 27 28 29 30 31 32 33 34 35 36 37 38 39 40 41 42 43 44 45 46 47 48 49 50
000
ASUS43 KOAX 021102
RWRNE

WEATHER ROUNDUP FOR NEBRASKA
NATIONAL WEATHER SERVICE OMAHA NE
600 AM CDT THU JUL 02 2015

NOTES: SATELLITE DATA IS BEING USED TO AUGMENT CLOUD COVER ABOVE
       12000 FEET.
       "FAIR" INDICATES FEW OR NO CLOUDS BELOW 12,000 FEET WITH NO
       SIGNIFICANT WEATHER AND/OR OBSTRUCTIONS TO VISIBILITY.

  * THESE STATIONS DO NOT REPORT WEATHER SUCH AS RAIN...SNOW OR FOG.

NEZ001>004-019>022-054>056-021200-
NEBRASKA PANHANDLE

CITY           SKY/WX    TMP DP  RH WIND       PRES   REMARKS
SCOTTSBLUFF    MOCLDY    60  32  34 S5        30.12F
ALLIANCE       CLOUDY    59  57  93 S9        30.07F
CHADRON        MOCLDY    60  57  89 W8        30.06R
SIDNEY         LGT RAIN  58  57  97 E13       30.18F
$$

NEZ057>060-069>072-079>082-021200-
SOUTHWEST NEBRASKA

CITY           SKY/WX    TMP DP  RH WIND       PRES   REMARKS
NORTH PLATTE   RAIN      63  58  83 N15G28    30.07R
IMPERIAL       LGT RAIN  61  57  87 N20G33    30.11R
MCCOOK         HVY RAIN  64  60  87 N30G43    30.05R FOG
$$

NEZ005>010-023>029-035>040-094-021200-
NORTH CENTRAL NEBRASKA

CITY           SKY/WX    TMP DP  RH WIND       PRES   REMARKS
VALENTINE      CLOUDY    64  62  93 W6        29.97R
BROKEN BOW     CLOUDY    69  62  78 NW23G30   29.96F
$$

NEZ041-046>049-061>064-073>077-083>087-021200-
SOUTH CENTRAL NEBRASKA

CITY           SKY/WX    TMP DP  RH WIND       PRES   REMARKS
GRAND ISLAND   CLOUDY    68  67  96 S5        29.96F FOG
HASTINGS       CLOUDY    69  68  96 SE7       29.95F FOG
KEARNEY *      CLOUDY    70  66  88 CALM      29.97S THUNDER
$$

NEZ011>018-030>034-042>045-021200-
NORTHEAST NEBRASKA

CITY           SKY/WX    TMP DP  RH WIND       PRES   REMARKS
NORFOLK        HVY RAIN  62  61  96 E6        29.97R FOG
COLUMBUS *     CLOUDY    66  59  77 E5        29.96S
TEKAMAH        CLOUDY    63  58  83 NE3       29.95F
$$

NEZ050>053-065>068-078-088>093-021200-
SOUTHEAST NEBRASKA

CITY           SKY/WX    TMP DP  RH WIND       PRES   REMARKS
LINCOLN        CLOUDY    68  64  87 E7        29.95R
OMAHA EPPLEY   CLOUDY    65  59  81 VRB7      29.95R
FALLS CITY     CLOUDY    69  67  93 NE7       29.90R FOG
$$

NEZ044-045-051>053-067-021200-
OMAHA AREA

CITY           SKY/WX    TMP DP  RH WIND       PRES   REMARKS
OMAHA EPPLEY   CLOUDY    65  59  81 VRB7      29.95R
OFFUTT AFB     MOCLDY    64  60  87 NE6       29.94R
$$



USA.gov is the U.S. government's official web portal to all federal, state and local government web resources and services.